AO-07 1 07530U 74089B 21357.93868155 -.00000037 00000-0 51748-4 0 9996 2 07530 101.8823 332.4197 0012404 19.2623 46.2001 12.53651878155474 UO-11 1 14781U 84021B 21357.88163012 .00000556 00000-0 73824-4 0 9997 2 14781 97.6039 348.5124 0008579 168.9357 191.2048 14.83391186 14017 LO-19 1 20442U 90005G 21357.84847208 .00000082 00000-0 46773-4 0 9996 2 20442 98.7695 315.2836 0011221 329.3702 30.6825 14.33012074667951 HUBBLE 1 20580U 90037B 21357.89927861 .00001644 00000-0 87962-4 0 9993 2 20580 28.4697 251.3711 0002479 305.2494 107.7291 15.09898624539659 MET-2/21 1 22782U 93055A 21357.88521444 .00000057 00000-0 37849-4 0 9994 2 22782 82.5482 153.5842 0023386 118.9908 350.8850 13.83843426429723 AO-27 1 22825U 93061C 21357.83958859 .00000033 00000-0 30634-4 0 9997 2 22825 98.9054 19.9930 0008140 196.7623 163.3290 14.30136373473058 IO-26 1 22826U 93061D 21357.62510538 .00000046 00000-0 35400-4 0 9993 2 22826 98.8997 19.6657 0008893 184.5557 175.5546 14.30477829473270 FO-29 1 24278U 96046B 21357.74473166 .00000011 00000-0 46456-4 0 9995 2 24278 98.5415 40.4091 0350664 19.2561 342.1457 13.53108506251841 NOAA-15 1 25338U 98030A 21357.87715124 .00000076 00000-0 50089-4 0 9993 2 25338 98.6641 24.5349 0011424 89.8049 270.4439 14.26077709227995 GO-32 1 25397U 98043D 21357.80604818 .00000034 00000-0 34589-4 0 9993 2 25397 98.7960 303.0370 0000327 215.3502 144.7654 14.23725444218438 ISS 1 25544U 98067A 21358.18587668 .00007918 00000-0 15131-3 0 9997 2 25544 51.6429 123.2212 0004312 348.6170 73.1429 15.49077983318046 NO-44 1 26931U 01043C 21357.84339079 .00000055 00000-0 52626-4 0 9995 2 26931 67.0498 151.6517 0006301 280.6228 79.4163 14.30650074 56282 SO-50 1 27607U 02058C 21357.83521938 .00000431 00000-0 81245-4 0 9996 2 27607 64.5548 119.1737 0063922 330.3702 29.3784 14.75853996 22458 CO-55 1 27844U 03031E 21357.91985652 .00000158 00000-0 90584-4 0 9999 2 27844 98.6801 3.2594 0008908 248.2825 111.7405 14.22361718958914 CO-57 1 27848U 03031J 21357.82904776 .00000126 00000-0 77119-4 0 9995 2 27848 98.6851 3.7185 0008715 263.8972 96.1213 14.21931467958721 RS-22 1 27939U 03042A 21357.78921816 .00000714 00000-0 13573-3 0 9993 2 27939 98.1668 133.8822 0013704 47.4138 312.8236 14.67086066975289 NOAA-18 1 28654U 05018A 21357.84208109 .00000146 00000-0 10300-3 0 9997 2 28654 98.9727 63.2504 0015201 107.3480 252.9356 14.12669686855189 CO-58 1 28895U 05043F 21357.81915957 .00000593 00000-0 12196-3 0 9996 2 28895 98.0829 127.2292 0016083 338.1730 21.8786 14.64032760861716 Falconsat-3 1 30776U 07006E 21357.93596516 .00018322 00000-0 39435-3 0 9991 2 30776 35.4349 320.2176 0003825 228.3936 131.6466 15.43741386822376 CO-65 1 32785U 08021C 21357.72698175 .00001410 00000-0 15549-3 0 9992 2 32785 97.6353 329.4888 0014418 95.3109 264.9754 14.88945652740333 AAUSAT2 1 32788U 08021F 21357.93894552 .00002656 00000-0 24105-3 0 9996 2 32788 97.5202 344.8462 0011678 2.2155 357.9117 14.96066625742184 DO-64 1 32789U 08021G 21357.87056183 .00007009 00000-0 43253-3 0 9992 2 32789 97.3585 25.8714 0010689 202.0281 158.0491 15.10164510745406 CO-66 1 32791U 08021J 21357.74652553 .00002502 00000-0 25348-3 0 9992 2 32791 97.5924 335.2117 0014411 59.2935 300.9702 14.91726891740994 RS-30 1 32953U 08025A 21357.84579021 .00000021 00000-0 80971-4 0 9993 2 32953 82.5034 293.1345 0018640 286.4114 73.4914 12.43106497616512 PRISM 1 33493U 09002B 21357.91018908 .00003233 00000-0 27720-3 0 9999 2 33493 98.2132 329.9020 0015424 21.7781 338.4092 14.98215030702681 NOAA-19 1 33591U 09005A 21357.89474993 .00000066 00000-0 60812-4 0 9999 2 33591 99.1687 23.1626 0013338 324.0989 35.9284 14.12517015663403 SRMSAT 1 37841U 11058D 21357.92626170 .00000371 00000-0 58849-4 0 9998 2 37841 19.9711 235.8831 0011871 215.1068 248.2029 14.10717254526422 HRBE 1 37855U 11061F 21357.88388640 .00006988 00000-0 33033-3 0 9996 2 37855 101.7213 19.8875 0162858 226.8027 131.9487 15.09032322554734 RS-40 1 38735U 12041C 21357.80829078 .00000025 00000-0 11068-3 0 9990 2 38735 82.4790 15.0237 0017958 37.0534 323.1781 12.42584073426708 ZACUBE-1 1 39417U 13066B 21357.88757327 .00001264 00000-0 16250-3 0 9995 2 39417 97.6151 332.6414 0056922 260.0460 99.4327 14.81735883437129 Delfi-N3xt 1 39428U 13066N 21357.82096474 .00001323 00000-0 21330-3 0 9991 2 39428 97.8008 295.0127 0120258 118.6989 242.6367 14.68309392432752 GOMX-1 1 39430U 13066Q 21357.79570667 .00000711 00000-0 13693-3 0 9994 2 39430 97.8157 269.9953 0148969 238.3073 120.3546 14.59783504430660 LO-74 1 39440U 13066AA 21357.88877778 .00001578 00000-0 22273-3 0 9994 2 39440 97.7033 318.1636 0079239 342.0499 17.7916 14.76446289434373 AO-73 1 39444U 13066AE 21357.88842690 .00001473 00000-0 18422-3 0 9998 2 39444 97.6044 335.0325 0055953 249.0737 110.4482 14.82687266435503 SPROUT 1 39770U 14029E 21357.81912424 .00003601 00000-0 38816-3 0 9990 2 39770 97.9314 109.1579 0007107 307.6074 52.4529 14.89045369411513 DTUSAT-2 1 40030U 14033W 21357.78023710 .00001605 00000-0 17545-3 0 9991 2 40030 97.9274 285.0750 0010398 273.4078 86.5949 14.89241365407494 EO-80 1 40032U 14033Y 21357.74850934 .00001704 00000-0 18611-3 0 9990 2 40032 97.9280 285.0531 0010335 274.7903 85.2133 14.89204306407464 HODOYOSHI-1 1 40299U 14070B 21357.86438501 .00003443 00000-0 13914-3 0 9994 2 40299 97.2678 66.1698 0013802 45.0501 14.8364 15.25319482396284 FIREBIRD FU3 1 40377U 15003B 21357.72713809 .00014538 00000-0 49856-3 0 9991 2 40377 99.1127 179.1682 0111413 257.8183 101.0552 15.24505591381600 FIREBIRD FU4 1 40378U 15003C 21357.49945489 .00013917 00000-0 47656-3 0 9993 2 40378 99.1133 179.0664 0111423 258.3352 100.5359 15.24565863381575 GRIFEX 1 40379U 15003D 21357.75601021 .00009224 00000-0 35785-3 0 9990 2 40379 99.1145 167.0042 0123544 294.7635 64.0780 15.19545760380918 NO-84 1 40654U 15025D 21356.53573001 .07572654 12207-4 29631-3 0 3027 2 40654 54.9254 216.0649 0005658 277.1906 89.9756 16.43661753 36841 XW-2A 1 40903U 15049E 21357.86432015 .00012626 00000-0 24730-3 0 9998 2 40903 97.2113 51.7165 0012981 48.3382 67.5838 15.47430901352062 XW-2C 1 40906U 15049H 21357.86634132 .00003574 00000-0 18215-3 0 9998 2 40906 97.4899 357.9734 0012800 248.0057 181.3653 15.17348340346288 XW-2D 1 40907U 15049J 21357.82612476 .00003860 00000-0 19426-3 0 9995 2 40907 97.4893 357.8040 0012118 243.5079 239.5466 15.17749243346317 LILACSAT-2 1 40908U 15049K 21357.88962233 .00001787 00000-0 99677-4 0 9994 2 40908 97.5111 355.4242 0013940 265.2181 160.3199 15.14793353345905 XW-2E 1 40909U 15049L 21357.84972315 .00005904 00000-0 27246-3 0 9990 2 40909 97.4666 2.0739 0011460 223.8868 257.9070 15.20552208346702 XW-2F 1 40910U 15049M 21357.84966528 .00005821 00000-0 27255-3 0 9999 2 40910 97.4741 1.1715 0012501 225.0036 256.7363 15.20046778346487 XW-2B 1 40911U 15049N 21357.83943582 .00003784 00000-0 19102-3 0 9992 2 40911 97.4889 358.4666 0011974 245.1812 236.3276 15.17658199346201 DCBB 1 40912U 15049P 21357.85296590 .00006575 00000-0 28430-3 0 9990 2 40912 97.4420 5.5536 0013240 192.1040 290.1789 15.22720416347005 TW-1A 1 40928U 15051D 21357.89968101 .00019602 00000-0 36030-3 0 9998 2 40928 97.0611 18.4540 0007723 329.6549 150.8734 15.49223953350984 IO-86 1 40931U 15052B 21356.50555478 .00000801 00000-0 22456-4 0 9998 2 40931 6.0022 351.2436 0012867 185.7929 174.1983 14.76712268337143 ATHENOXAT-1 1 41168U 15077C 21357.54456053 .00008748 00000-0 39396-3 0 9990 2 41168 14.9876 309.6611 0009923 296.6309 209.2291 15.16969503333527 ChubuSat-2 1 41338U 16012B 21357.57543054 .00001706 00000-0 12452-3 0 9991 2 41338 31.0038 63.1335 0013544 208.5855 151.4038 15.00745516321032 ChubuSat-3 1 41339U 16012C 21357.84681995 .00001248 00000-0 89016-4 0 9991 2 41339 31.0115 58.4550 0013498 219.1677 140.7990 15.00874159321071 Horyu-4 1 41340U 16012D 21357.48091195 .00002937 00000-0 21064-3 0 9994 2 41340 31.0061 41.8972 0013662 250.8286 109.0871 15.02251487321237 e-st@r-II 1 41459U 16025D 21357.63776881 .00012077 00000-0 56556-3 0 9998 2 41459 98.1646 145.6135 0156381 144.2042 216.9798 15.09597582310945 AAUSAT4 1 41460U 16025E 21357.90621286 .00016933 00000-0 74086-3 0 9991 2 41460 98.1607 150.8081 0141596 124.0404 237.4365 15.13447551311340 LO-87 1 41557U 16033B 21357.87234209 .00008186 00000-0 27720-3 0 9992 2 41557 97.3931 90.8912 0010729 285.0639 214.7568 15.30792848310494 NuSat2 1 41558U 16033C 21357.87391641 .00008159 00000-0 25867-3 0 9997 2 41558 97.4080 95.6413 0009727 274.9869 225.3855 15.32927500310728 Lapan A3 1 41603U 16040E 21357.89167824 .00000936 00000-0 46129-4 0 9992 2 41603 97.2317 37.3682 0014863 61.2178 291.3474 15.20208363305357 Pratham 1 41783U 16059A 21357.68805436 .00000308 00000-0 68421-4 0 9998 2 41783 97.9398 41.0544 0033665 11.3249 348.8704 14.63205376279921 TY-1 1 41844U 16066D 21357.88611293 .00004784 00000-0 18503-3 0 9999 2 41844 97.3954 6.2006 0013876 182.2831 296.3780 15.26609485284795 CAS-2T 1 41847U 16066G 21357.77370865 .00000509 00000-0 86416-4 0 9997 2 41847 98.5773 57.4470 0365152 15.2546 345.9309 14.38307943269098 EO-88 1 42017U 17008BX 21357.64758457 .00010307 00000-0 35944-3 0 9993 2 42017 97.2945 61.7965 0006598 143.5370 216.6321 15.29792293270163 CAS-4B 1 42759U 17034B 21357.82884682 .00002145 00000-0 14051-3 0 9992 2 42759 43.0172 219.6717 0009071 272.2992 188.8769 15.10648691249787 CAS-4A 1 42761U 17034D 21357.93900745 .00002248 00000-0 14627-3 0 9999 2 42761 43.0179 217.9848 0009452 273.2300 176.5172 15.10736474249802 NIUSat 1 42766U 17036B 21357.91497822 .00005738 00000-0 24154-3 0 9994 2 42766 97.2265 37.1457 0013470 222.5687 137.4508 15.23667292250055 Aalto 1 1 42775U 17036L 21357.83771985 .00004348 00000-0 18509-3 0 9993 2 42775 97.2229 37.2017 0012046 221.5823 138.4499 15.23436237250027 URSA MAIOR 1 42776U 17036M 21357.86871964 .00005355 00000-0 22494-3 0 9992 2 42776 97.2242 37.8158 0011813 220.2702 139.7661 15.23787963250051 Max Valier Sat 1 42778U 17036P 21357.66491959 .00005865 00000-0 24103-3 0 9999 2 42778 97.2312 39.9018 0010417 221.7928 138.2515 15.24504307250102 Pegasus 1 42784U 17036V 21357.68514646 .00007500 00000-0 29806-3 0 9990 2 42784 97.2259 40.5238 0009828 224.0805 135.9651 15.25541198250199 NUDATSat 1 42787U 17036Y 21357.94091455 .00010560 00000-0 38681-3 0 9991 2 42787 97.2298 43.8849 0009065 213.2199 146.8495 15.28154516250259 SUCHAI 1 1 42788U 17036Z 21357.76961569 .00008215 00000-0 31611-3 0 9994 2 42788 97.2266 41.8692 0009428 219.3766 140.6788 15.26593103250354 SKCUBE 1 42789U 17036AA 21357.70601122 .00007775 00000-0 30272-3 0 9997 2 42789 97.2262 41.4187 0009347 220.1091 139.9459 15.26219285250247 VZLUSAT 1 1 42790U 17036AB 21357.67763112 .00011526 00000-0 42260-3 0 9992 2 42790 97.2296 43.6136 0008727 213.1446 146.9248 15.28103572250361 VENTA 1 1 42791U 17036AC 21357.89581148 .00006572 00000-0 25766-3 0 9991 2 42791 97.2260 41.5819 0008988 220.2278 139.8297 15.26047777250265 Robusta 1B 1 42792U 17036AD 21357.70737068 .00008182 00000-0 31555-3 0 9998 2 42792 97.2263 41.8805 0008934 219.9845 140.0737 15.26520782250280 D-SAT 1 42794U 17036AF 21357.92564760 .00002264 00000-0 19882-3 0 9995 2 42794 97.4544 7.6952 0123699 313.1066 45.9855 14.91857404245303 TechnoSat 1 42829U 17042E 21357.93035564 .00000735 00000-0 78679-4 0 9998 2 42829 97.4405 217.1062 0012842 230.6900 129.3182 14.91442551241922 QIKCOM-1 1 42983U 98067NF 21357.85334295 .00032525 00000-0 24076-3 0 9992 2 42983 51.6350 13.6536 0003483 2.4386 357.6628 15.72612258237146 AO-91 1 43017U 17073E 21357.66862622 .00003647 00000-0 28095-3 0 9996 2 43017 97.6920 254.0150 0254287 42.9529 319.1233 14.80051323221101 PICSAT 1 43132U 18004X 21357.77587164 .00009617 00000-0 36291-3 0 9996 2 43132 97.3923 70.5768 0007081 257.8483 102.1963 15.27217835219560 AO-92 1 43137U 18004AC 21357.87494037 .00006849 00000-0 26638-3 0 9996 2 43137 97.3894 69.8914 0006836 261.1422 98.9042 15.26326815219540 TianYi 2 1 43155U 18008A 21357.84550684 .00004608 00000-0 26230-3 0 9997 2 43155 97.3801 56.9477 0017891 38.2214 92.7150 15.13183661216707 Zhou Enlai 1 43156U 18008B 21357.88463157 .00004347 00000-0 25031-3 0 9998 2 43156 97.3844 56.8314 0015212 39.1873 47.5309 15.12833727216641 TianYi 6 1 43158U 18008D 21357.77873655 .00004012 00000-0 23576-3 0 9997 2 43158 97.3780 55.0171 0014616 37.9177 86.8436 15.12151787216549 S-Net D 1 43186U 18014G 21357.69949120 .00001770 00000-0 15750-3 0 9990 2 43186 97.6694 261.7633 0011280 158.3566 201.8135 14.97290124212610 S-Net B 1 43187U 18014H 21357.69948661 .00001784 00000-0 15875-3 0 9993 2 43187 97.6690 261.7226 0011276 158.2769 201.8933 14.97289589212613 S-Net A 1 43188U 18014J 21357.69967653 .00001773 00000-0 15778-3 0 9996 2 43188 97.6694 261.7766 0011260 158.3283 201.8417 14.97288582212611 S-Net C 1 43189U 18014K 21357.70020320 .00001730 00000-0 15403-3 0 9998 2 43189 97.6689 261.7143 0011254 158.2337 201.9365 14.97287969211167 FMN 1 1 43192U 18015A 21357.93753296 .00015172 00000-0 51607-3 0 9994 2 43192 97.5122 134.8362 0012237 295.4958 183.9302 15.30465444216541 Shaonian Xing 1 43199U 18015H 21357.93777049 .00010193 00000-0 36137-3 0 9992 2 43199 97.4915 131.2089 0013754 305.7823 208.7917 15.29200351216589 SurfSat 1 43614U 18070B 21357.86997384 .00016674 00000-0 35232-3 0 9998 2 43614 93.0215 25.0121 0012695 0.3896 359.7369 15.45047027183885 CP-7 DAVE 1 43615U 18070C 21357.86473040 .00015900 00000-0 34082-3 0 9990 2 43615 93.0218 24.9353 0012918 0.6337 359.4934 15.44625098183867 ELFIN-B 1 43616U 18070D 21357.62732270 .00027256 00000-0 49382-3 0 9994 2 43616 93.0171 25.3424 0011683 356.5747 3.5430 15.49475167184017 ELFIN-A 1 43617U 18070E 21357.83516326 .00025984 00000-0 45801-3 0 9998 2 43617 93.0220 26.4817 0010731 353.4126 6.6991 15.50273537184072 CubeBel-1 1 43666U 18083E 21357.93670251 .00006149 00000-0 28548-3 0 9996 2 43666 97.4395 23.8497 0012970 223.2500 223.6570 15.20311376174792 Changshagaoxin 1 43669U 18083H 21357.82426192 .00005155 00000-0 24916-3 0 9991 2 43669 97.4316 20.2426 0009160 218.8393 257.1951 15.19029046174623 Ten-Koh 1 43677U 18084G 21357.89953013 .00001111 00000-0 11902-3 0 9994 2 43677 97.9420 121.7108 0017048 127.6367 232.6401 14.90632693171529 PO-101 1 43678U 18084H 21357.80473319 .00000890 00000-0 93789-4 0 9999 2 43678 97.9476 124.3570 0010789 139.1793 221.0237 14.91862660171663 IRVINE 01 1 43693U 18088D 21357.64958733 .00016713 00000-0 60143-3 0 9998 2 43693 85.0331 68.9726 0016517 51.6031 308.6694 15.28346159173305 QO-100 1 43700U 18090A 21357.88580890 .00000162 00000-0 00000-0 0 9995 2 43700 0.0176 32.4703 0002263 265.5547 139.2972 1.00272513 11260 Reaktor Hello World 1 43743U 18096AA 21357.80151251 .00007608 00000-0 26269-3 0 9995 2 43743 97.3708 73.8450 0015608 329.8554 30.1787 15.30119813171074 MinXSS-2 1 43758U 18099A 21357.69930365 .00001744 00000-0 15858-3 0 9999 2 43758 97.6479 64.7931 0016430 131.3903 228.8734 14.96401391166819 AO-95 1 43770U 18099N 21357.87545527 .00002203 00000-0 20299-3 0 9991 2 43770 97.6453 63.6889 0015503 139.6994 220.5379 14.95616670166761 RANGE-B 1 43772U 18099Q 21357.72730379 .00002825 00000-0 25637-3 0 9999 2 43772 97.6541 64.8558 0015195 128.9658 231.2919 14.96005167166754 RANGE-A 1 43773U 18099R 21357.63107270 .00000964 00000-0 92179-4 0 9996 2 43773 97.6383 62.5703 0014562 128.4818 231.7712 14.95431511166713 MOVE-II 1 43780U 18099Y 21357.75103753 .00004004 00000-0 35763-3 0 9993 2 43780 97.6482 64.3508 0014561 135.6508 224.5883 14.96403075166779 SNUSat 2 1 43782U 18099AA 21357.74497349 .00002246 00000-0 20585-3 0 9993 2 43782 97.6455 63.9685 0013969 126.4804 233.7707 14.95838275166769 SnugLite 1 43784U 18099AC 21357.73624261 .00002409 00000-0 21939-3 0 9994 2 43784 97.6416 63.6382 0016158 134.2313 226.0238 14.95983179166784 ITASat 1 1 43786U 18099AE 21357.75954617 .00001510 00000-0 13981-3 0 9999 2 43786 97.6476 64.3849 0016111 133.3532 226.9035 14.95873806166789 EAGLET 1 1 43790U 18099AJ 21357.88514363 .00001550 00000-0 14238-3 0 9998 2 43790 97.6469 64.9923 0014525 135.7040 224.5347 14.96186169166535 ESEO 1 43792U 18099AL 21357.77021694 .00000272 00000-0 29359-4 0 9999 2 43792 97.6426 64.3070 0014208 133.8415 226.3983 14.95865562166569 CSIM 1 43793U 18099AM 21357.86941637 .00003215 00000-0 28333-3 0 9998 2 43793 97.6469 65.1730 0014292 130.0611 230.1867 14.97063880166603 Astrocast 0.1 1 43798U 18099AS 21357.73557277 .00003480 00000-0 31076-3 0 9994 2 43798 97.6469 65.1332 0013778 117.9967 242.2650 14.96505043166821 JO-97 1 43803U 18099AX 21357.75584989 .00002111 00000-0 19194-3 0 9990 2 43803 97.6440 64.1187 0016104 132.8827 227.3750 14.96183407166798 Suomi 100 1 43804U 18099AY 21357.76583047 .00001507 00000-0 13867-3 0 9995 2 43804 97.6432 64.0769 0016047 133.3037 226.9525 14.96136569166804 Al Farabi 2 1 43805U 18099AZ 21357.93540080 .00002226 00000-0 20084-3 0 9993 2 43805 97.6458 64.5694 0015613 131.6073 228.6491 14.96432968166841 CHOMPTT 1 43855U 18104G 21357.90501921 .00006291 00000-0 25029-3 0 9993 2 43855 85.0365 167.8916 0017128 159.8889 200.3033 15.24916254167957 ISAT 1 43879U 18111D 21357.78610972 .00001385 00000-0 12531-3 0 9993 2 43879 97.6761 261.5915 0011978 182.5850 177.5336 14.96985119161376 UWE-4 1 43880U 18111E 21357.74523642 .00002522 00000-0 22280-3 0 9994 2 43880 97.6773 262.1419 0012048 182.9309 177.1844 14.97200926163402 Sparrow 1 43881U 18111F 21357.70798214 .00002205 00000-0 19500-3 0 9999 2 43881 97.6801 262.2790 0011842 179.3300 180.7940 14.97285807163408 Lume 1 1 43908U 18111AJ 21357.68486084 .00007142 00000-0 26818-3 0 9990 2 43908 97.2119 246.1918 0019467 345.3096 14.7576 15.27315649166548 FO-98 1 43933U 19003B 21357.73366973 .00059175 00000-0 17007-2 0 9991 2 43933 97.1621 32.7383 0014365 78.3003 281.9853 15.35506499163054 FO-99 1 43937U 19003F 21357.66221834 .00008100 00000-0 30567-3 0 9992 2 43937 97.1538 33.1464 0023984 63.1130 297.2557 15.27006028163123 MYSat 1 1 44045U 18092F 21357.92485772 .00017600 00000-0 39697-3 0 9990 2 44045 51.6344 219.6680 0010323 171.1505 188.9665 15.43266014160689 AstroCast 0.2 1 44083U 19018F 21357.85185456 .00006658 00000-0 27901-3 0 9995 2 44083 97.3491 55.2429 0013098 34.0748 326.1328 15.23769829151721 AISTechSat 3 1 44103U 19018AB 21357.91074953 .00005636 00000-0 22835-3 0 9990 2 44103 97.3365 55.7437 0013956 41.7209 60.3156 15.24963227151879 AISat 1 1 44104U 19018AC 21357.76810998 .00005516 00000-0 16708-3 0 9990 2 44104 97.4111 75.4817 0056477 42.3701 318.1881 15.32993217152668 Prox-1 1 44339U 19036A 21357.89112843 .00002276 00000-0 48045-3 0 9997 2 44339 23.9991 220.7554 0010685 95.1368 265.0343 14.54010310132766 Oculus-ASR 1 44348U 19036K 21357.27657461 .00031083 00000-0 38373-3 0 9990 2 44348 28.5107 311.1017 0300814 161.0721 200.1328 15.19901225137581 Armadillo 1 44352U 19036P 21357.92578907 .00045922 -59088-5 46679-3 0 9995 2 44352 28.5279 266.9633 0251273 230.5741 127.2364 15.32827068138032 NO-104 1 44354U 19036R 21357.88332955 .00031835 00000-0 38102-3 0 9997 2 44354 28.5275 297.1964 0294221 181.0949 178.9018 15.21829319137771 NO-103 1 44355U 19036S 21357.92081946 .00092179 -45331-5 71668-3 0 9998 2 44355 28.5234 211.5665 0193854 320.7021 37.9653 15.49277236138638 Move-IIb 1 44398U 19038N 21357.90592864 .00008109 00000-0 43576-3 0 9996 2 44398 97.6010 321.4714 0024717 19.6277 340.5901 15.14897842136436 SONATE 1 44400U 19038Q 21357.88785801 .00003730 00000-0 21295-3 0 9991 2 44400 97.6133 321.1133 0025626 21.2146 339.0142 15.13089460136373 BeeSat 9 1 44412U 19038AC 21357.86735970 .00006265 00000-0 34498-3 0 9999 2 44412 97.6146 321.5390 0022471 25.3164 334.9163 15.14175827136101 JAISAT-1 1 44419U 19038F 21357.90864653 .00006286 00000-0 34163-3 0 9994 2 44419 97.6154 322.2783 0021348 23.2779 336.9415 15.14662731136468 LightSail-2 1 44420U 19036AC 21357.78639489 .00024736 00000-0 46485-2 0 9996 2 44420 24.0052 187.0030 0010117 167.5742 192.5002 14.63226590131215 Taurus 1 1 44530U 19059C 21357.81384835 .00001294 00000-0 37280-3 0 9997 2 44530 98.5504 89.7828 0012452 289.3908 70.5969 14.46369492120450 Duchifat 3 1 44854U 19089C 21357.55252211 .00002373 00000-0 19393-3 0 9996 2 44854 36.9658 62.0642 0008387 238.3323 121.6717 14.99889919111504 OPS-SAT 1 44878U 19092F 21357.45155998 .00006880 00000-0 34752-3 0 9992 2 44878 97.4743 178.3381 0012305 229.4902 130.5260 15.17337956111486 TO-108 1 44881U 19093C 21357.78461700 .00000322 00000-0 47714-4 0 9992 2 44881 97.9113 74.4095 0016092 41.8283 318.4153 14.81527494108762 FloripaSat 1 1 44885U 19093G 21357.82467064 .00001096 00000-0 14277-3 0 9996 2 44885 97.9142 75.3439 0015539 48.6494 311.6060 14.82520727108826 RS-44 1 44909U 19096E 21357.90665723 .00000023 00000-0 48918-4 0 9996 2 44909 82.5213 346.9254 0217649 10.4824 350.0706 12.79711849 93057 Phoenix 1 45258U 98067RB 21357.87455611 .00044544 00000-0 47636-3 0 9999 2 45258 51.6373 97.2486 0004833 248.7575 111.2903 15.63413078104766 QARMAN 1 45263U 98067RG 21357.73373438 .00180420 00000-0 83495-3 0 9993 2 45263 51.6322 78.9466 0005457 310.0598 49.9926 15.82404226105052 Quetzal 1 1 45598U 98067RL 21357.65715703 .00121999 00000-0 77306-3 0 9990 2 45598 51.6358 88.2847 0003542 328.1517 31.9268 15.75650994 94192 BY70-2 1 45857U 20042B 21357.81643758 .00003421 00000-0 48380-3 0 9993 2 45857 97.9724 71.5458 0009554 328.1929 31.8762 14.77737274 79503 UPMSat 2 1 46276U 20061E 21357.77060002 .00002954 00000-0 15325-3 0 9993 2 46276 97.4140 67.5860 0003001 78.8436 281.3134 15.16912515 72236 AmicalSat 1 46287U 20061R 21357.74322416 .00004525 00000-0 27435-3 0 9993 2 46287 97.4690 66.7192 0003536 140.8163 219.3323 15.11045051 71920 SALSAT 1 46495U 20068K 21357.92848578 .00000792 00000-0 62166-4 0 9996 2 46495 97.7105 294.4900 0016981 146.1142 214.1175 15.03718304 67805 BY70-3 1 46839U 20079N 21357.94640598 .00013064 00000-0 37779-3 0 9991 2 46839 97.2231 68.0652 0005532 238.9661 227.0496 15.35730267 63269 SPOC 1 46921U 98067RR 21357.61399248 .00041922 00000-0 49698-3 0 9999 2 46921 51.6391 109.1006 0000896 58.8470 301.2611 15.60789684 64335 Bobcat-1 1 46922U 98067RS 21357.87822927 .00078931 00000-0 72849-3 0 9997 2 46922 51.6405 101.9008 0000660 346.0380 14.0598 15.66888604 64415 Neutron-1 1 46923U 98067RT 21357.90143885 .00041038 00000-0 48823-3 0 9994 2 46923 51.6399 108.0215 0000855 79.4847 280.6243 15.60706841 64400 CAPE 3 1 47309U 21002A 21357.87537740 .00005849 00000-0 26315-3 0 9993 2 47309 60.6846 303.2980 0035255 150.0395 210.2719 15.21818504 51703 AO-109 1 47311U 21002C 21357.87709000 .00005503 00000-0 24321-3 0 9998 2 47311 60.6865 301.6512 0032095 144.8003 215.5213 15.22626282 51704 MiTEE 1 1 47314U 21002F 21357.52829393 .00010848 00000-0 43625-3 0 9997 2 47314 60.6853 299.8489 0034372 135.6146 224.7707 15.24891385 51723 ExoCube 2 1 47319U 21002L 21357.82884308 .00005019 00000-0 22528-3 0 9995 2 47319 60.6858 302.5102 0032765 147.3163 212.9961 15.22241590 51658 UVSQ-SAT 1 47438U 21006AB 21357.74274087 .00004266 00000-0 23949-3 0 9990 2 47438 97.4637 55.3871 0013124 157.7729 202.4074 15.13793249 50684 YUSAT 1 1 47439U 21006AC 21357.87271320 .00004451 00000-0 24907-3 0 9993 2 47439 97.4642 55.5326 0013003 157.5174 202.6630 15.13891234 50702 SOMP 2b 1 47445U 21006AJ 21357.71281432 .00004526 00000-0 25532-3 0 9996 2 47445 97.4610 55.1520 0012693 161.5038 198.6657 15.13593571 50676 IDEASSat 1 47458U 21006AX 21357.74290328 .00003920 00000-0 22253-3 0 9991 2 47458 97.4701 55.5124 0011850 158.9158 201.2564 15.13455487 50673 RSP-01 1 47925U 98067SB 21357.78206812 .00046573 00000-0 60208-3 0 9993 2 47925 51.6407 116.2119 0001286 355.5078 4.5903 15.58459466 44229 TAUSAT-1 1 47926U 98067SC 21357.92147357 .00060002 00000-0 69935-3 0 9997 2 47926 51.6396 113.3763 0002074 351.6588 8.4371 15.61075706 44260 Tsuru 1 47927U 98067SD 21357.71054291 .00039067 00000-0 52380-3 0 9992 2 47927 51.6401 117.2335 0001321 359.0138 1.0851 15.57566032 44201 STARS-EC 1 47928U 98067SE 21357.79450088 .00069942 00000-0 80599-3 0 9993 2 47928 51.6395 114.7808 0002787 102.1164 258.0142 15.61305342 44223 Maya-2 1 47929U 98067SF 21357.70616913 .00039965 00000-0 53558-3 0 9993 2 47929 51.6400 117.2018 0001438 354.9803 5.1175 15.57568254 44169 OPUSAT-II 1 47930U 98067SG 21357.83761810 .00068762 00000-0 76903-3 0 9992 2 47930 51.6390 113.5814 0001734 325.0640 35.0240 15.62088988 44262 GuaraniSat-1 1 47931U 98067SH 21357.63812230 .00040425 00000-0 54077-3 0 9998 2 47931 51.6405 117.5032 0001442 355.6025 4.4954 15.57611307 44193 CubeSX-Sirius-HSE 1 47951U 21022V 21357.91519728 .00002286 00000-0 15969-3 0 9994 2 47951 97.5449 256.1300 0023118 29.2870 100.9937 15.06121747 41565 CubeSX-HSE 1 47952U 21022W 21357.96165601 .00002206 00000-0 15410-3 0 9990 2 47952 97.5443 256.1852 0022917 28.3691 32.5368 15.06157991 41578 KSU-Cubesat 1 47954U 21022Y 21357.66850114 .00004286 00000-0 29445-3 0 9992 2 47954 97.5453 255.9468 0022237 29.1861 331.0603 15.06284511 41257 GRBAlpha 1 47959U 21022AD 21357.96153101 .00002290 00000-0 15980-3 0 9994 2 47959 97.5447 256.2054 0022856 28.5339 32.1213 15.06166294 40397 Orbicraft-Zorkiy 1 47960U 21022AE 21357.89556931 .00003099 00000-0 21428-3 0 9998 2 47960 97.5463 256.2124 0022252 28.3534 104.5657 15.06250311 41076 STECCO 1 47962U 21022AG 21357.82107838 .00004211 00000-0 28058-3 0 9994 2 47962 97.5428 256.4690 0017665 24.8133 62.1848 15.07506773 40399 DO-111 1 47963U 21022AH 21357.69079214 .00010645 00000-0 67891-3 0 9992 2 47963 97.5447 256.6563 0019873 21.6852 338.5214 15.08723535 40416 MO-110 1 47964U 21022AJ 21357.68901556 .00005526 00000-0 36346-3 0 9998 2 47964 97.5437 256.4825 0020212 22.5273 337.6838 15.07806919 40386 FEES 1 48082U 21022AL 21357.69585639 .00006451 00000-0 42689-3 0 9996 2 48082 97.5445 256.3603 0016510 20.9796 339.2106 15.07574885 40085 RamSat 1 48850U 98067SL 21357.92114465 .00026880 00000-0 41456-3 0 9992 2 48850 51.6405 120.8558 0003823 126.9474 233.1867 15.53947220 29926 MO-112 1 48868U 98067SP 21357.85114603 .00066828 00000-0 83957-3 0 9995 2 48868 51.6391 118.8871 0001529 158.7615 201.3442 15.59064113 28725 TUBIN 1 48900U 21059X 21357.93998448 .00002436 00000-0 14321-3 0 9999 2 48900 97.5322 124.1402 0010285 357.9092 117.6906 15.12587531 27373 IT-SPINS 1 49017U 21013G 21357.81623852 .00006217 00000-0 27001-3 0 9990 2 49017 51.5902 158.1089 0007056 148.0428 212.0978 15.23563723 26983 LEDSAT 1 49069U 21073D 21357.87010878 .00002970 00000-0 19852-3 0 9994 2 49069 97.5459 69.2404 0028229 172.2160 187.9512 15.07421832 19372 CUTE 1 49263U 21088D 21357.76111073 .00002012 00000-0 15851-3 0 9995 2 49263 97.6073 64.1872 0017686 307.8415 52.1209 15.01795547 13043 Binar-1 1 49272U 98067SR 21357.61159732 .00027958 00000-0 45683-3 0 9996 2 49272 51.6410 124.7744 0004502 21.5341 338.5838 15.52318523 12230 Maya-3 1 49273U 98067SS 21357.85744717 .00034251 00000-0 54675-3 0 9991 2 49273 51.6406 123.4172 0004267 16.9642 343.1490 15.52861990 12278 Maya-4 1 49274U 98067ST 21357.73110952 .00033715 00000-0 53973-3 0 9991 2 49274 51.6406 124.0729 0004146 15.6454 344.4664 15.52790866 12255 CUAVA-1 1 49275U 98067SU 21357.75329856 .00036345 00000-0 58099-3 0 9995 2 49275 51.6425 123.9172 0003869 31.6816 110.4001 15.52795162 12203 TeikyoSat 4 1 49396U 21102B 21357.83330709 .00000667 00000-0 57789-4 0 9997 2 49396 97.5555 56.1228 0017463 118.3121 241.9867 15.00270002 6719 Z-Sat 1 49399U 21102E 21357.84980158 .00001864 00000-0 14615-3 0 9990 2 49399 97.5637 56.2679 0021024 105.2957 255.0593 15.01995977 6723 KOSEN 1 1 49402U 21102H 21357.82331707 .00001251 00000-0 97130-4 0 9997 2 49402 97.5580 56.2771 0025115 96.7569 263.6515 15.02883801 6728 /EX
